Time,TemperatureF,DewpointF,PressureIn,WindDirection,WindDirectionDegrees,WindSpeedMPH,WindSpeedGustMPH,Humidity,HourlyPrecipIn,Conditions,Clouds,dailyrainin,SoftwareType,DateUTC
2013-07-13 00:00:00,63.1,62.0,30.03,NE,50,0.0,0.0,97,0.00,,,1.66,weatherlink.com 1.10,2013-07-13 04:00:00,
2013-07-13 00:15:00,63.1,62.0,30.03,NE,50,0.0,0.0,97,0.00,,,0.00,weatherlink.com 1.10,2013-07-13 04:15:00,
2013-07-13 00:30:00,63.0,62.0,30.03,NE,50,0.0,0.0,97,0.00,,,0.00,weatherlink.com 1.10,2013-07-13 04:30:00,
2013-07-13 00:45:00,62.9,62.0,30.04,NE,50,0.0,0.0,97,0.00,,,0.00,weatherlink.com 1.10,2013-07-13 04:45:00,
2013-07-13 01:00:00,62.9,62.0,30.04,NE,50,0.0,0.0,96,0.00,,,0.00,weatherlink.com 1.10,2013-07-13 05:00:00,
2013-07-13 01:15:00,63.0,62.0,30.04,NE,50,0.0,0.0,96,0.00,,,0.00,weatherlink.com 1.10,2013-07-13 05:15:00,
2013-07-13 01:30:00,62.9,62.0,30.04,NE,50,0.0,0.0,97,0.00,,,0.00,weatherlink.com 1.10,2013-07-13 05:30:00,
2013-07-13 01:45:00,63.0,62.0,30.04,NE,50,0.0,0.0,97,0.00,,,0.00,weatherlink.com 1.10,2013-07-13 05:45:00,
2013-07-13 02:00:00,62.9,62.0,30.04,NE,50,0.0,0.0,97,0.00,,,0.00,weatherlink.com 1.10,2013-07-13 06:00:00,
2013-07-13 02:15:00,62.9,62.0,30.04,NE,50,0.0,0.0,97,0.00,,,0.00,weatherlink.com 1.10,2013-07-13 06:15:00,
2013-07-13 02:30:00,62.9,62.0,30.05,NE,50,1.0,1.0,97,0.00,,,0.00,weatherlink.com 1.10,2013-07-13 06:30:00,
2013-07-13 02:45:00,63.0,62.0,30.05,NE,53,0.0,2.0,96,0.00,,,0.00,weatherlink.com 1.10,2013-07-13 06:45:00,
2013-07-13 03:00:00,63.1,62.0,30.04,NE,53,0.0,0.0,96,0.00,,,0.00,weatherlink.com 1.10,2013-07-13 07:00:00,
2013-07-13 03:15:00,63.1,62.0,30.04,NE,53,0.0,1.0,96,0.00,,,0.00,weatherlink.com 1.10,2013-07-13 07:15:00,
2013-07-13 03:30:00,63.2,62.0,30.04,NE,53,0.0,0.0,96,0.00,,,0.00,weatherlink.com 1.10,2013-07-13 07:30:00,
2013-07-13 03:45:00,63.0,62.0,30.04,NE,53,1.0,1.0,96,0.00,,,0.00,weatherlink.com 1.10,2013-07-13 07:45:00,
2013-07-13 04:00:00,62.7,62.0,30.04,NE,53,0.0,2.0,96,0.00,,,0.00,weatherlink.com 1.10,2013-07-13 08:00:00,
2013-07-13 04:15:00,62.5,61.0,30.04,NE,53,0.0,2.0,96,0.00,,,0.00,weatherlink.com 1.10,2013-07-13 08:15:00,
2013-07-13 04:30:00,62.2,61.0,30.04,NE,53,0.0,1.0,97,0.00,,,0.00,weatherlink.com 1.10,2013-07-13 08:30:00,
2013-07-13 04:45:00,61.8,61.0,30.04,NE,53,0.0,0.0,96,0.00,,,0.00,weatherlink.com 1.10,2013-07-13 08:45:00,
2013-07-13 05:00:00,61.8,61.0,30.05,NE,53,0.0,2.0,97,0.00,,,0.00,weatherlink.com 1.10,2013-07-13 09:00:00,
2013-07-13 05:15:00,62.1,61.0,30.05,NE,53,0.0,2.0,97,0.00,,,0.00,weatherlink.com 1.10,2013-07-13 09:15:00,
2013-07-13 05:30:00,61.9,61.0,30.05,NE,53,0.0,0.0,97,0.00,,,0.00,weatherlink.com 1.10,2013-07-13 09:30:00,
2013-07-13 05:45:00,62.1,61.0,30.06,NE,53,0.0,3.0,97,0.00,,,0.00,weatherlink.com 1.10,2013-07-13 09:45:00,
2013-07-13 06:00:00,62.0,61.0,30.06,NE,53,0.0,2.0,97,0.00,,,0.00,weatherlink.com 1.10,2013-07-13 10:00:00,
2013-07-13 06:15:00,62.1,61.0,30.06,NE,53,3.0,3.0,97,0.00,,,0.00,weatherlink.com 1.10,2013-07-13 10:15:00,
2013-07-13 06:30:00,62.4,62.0,30.07,NE,53,0.0,2.0,97,0.00,,,0.00,weatherlink.com 1.10,2013-07-13 10:30:00,
2013-07-13 06:45:00,62.6,62.0,30.08,NE,53,0.0,1.0,97,0.00,,,0.00,weatherlink.com 1.10,2013-07-13 10:45:00,
2013-07-13 07:00:00,62.8,62.0,30.08,NE,53,1.0,1.0,97,0.00,,,0.00,weatherlink.com 1.10,2013-07-13 11:00:00,
2013-07-13 07:15:00,63.1,62.0,30.08,NE,53,0.0,0.0,97,0.00,,,0.00,weatherlink.com 1.10,2013-07-13 11:15:00,
2013-07-13 07:30:00,63.4,62.0,30.09,NE,53,1.0,1.0,96,0.00,,,0.00,weatherlink.com 1.10,2013-07-13 11:30:00,
2013-07-13 07:45:00,63.6,62.0,30.09,NE,53,2.0,2.0,95,0.00,,,0.00,weatherlink.com 1.10,2013-07-13 11:45:00,
2013-07-13 08:00:00,64.2,63.0,30.10,NE,39,0.0,3.0,95,0.00,,,0.00,weatherlink.com 1.10,2013-07-13 12:00:00,
2013-07-13 08:15:00,64.9,62.0,30.10,NE,39,0.0,3.0,91,0.00,,,0.00,weatherlink.com 1.10,2013-07-13 12:15:00,
2013-07-13 08:30:00,65.4,63.0,30.10,NE,41,0.0,2.0,91,0.00,,,0.00,weatherlink.com 1.10,2013-07-13 12:30:00,
2013-07-13 08:45:00,66.4,63.0,30.09,NE,41,0.0,2.0,89,0.00,,,0.00,weatherlink.com 1.10,2013-07-13 12:45:00,
2013-07-13 09:01:00,67.1,63.0,30.11,East,84,2.0,3.0,86,0.00,,,0.00,weatherlink.com 1.10,2013-07-13 13:01:00,
2013-07-13 09:16:00,67.4,64.0,30.11,NE,41,1.0,4.0,89,0.00,,,0.00,weatherlink.com 1.10,2013-07-13 13:16:00,
2013-07-13 09:31:00,66.9,64.0,30.12,NE,50,1.0,5.0,89,0.00,,,0.00,weatherlink.com 1.10,2013-07-13 13:31:00,
2013-07-13 09:46:00,67.2,65.0,30.12,ESE,111,1.0,3.0,91,0.00,,,0.00,weatherlink.com 1.10,2013-07-13 13:46:00,
2013-07-13 10:01:00,67.1,64.0,30.13,ENE,70,1.0,1.0,90,0.00,,,0.00,weatherlink.com 1.10,2013-07-13 14:01:00,
2013-07-13 10:16:00,67.2,64.0,30.13,NE,49,2.0,4.0,90,0.00,,,0.00,weatherlink.com 1.10,2013-07-13 14:16:00,
2013-07-13 10:31:00,68.1,65.0,30.13,NNE,25,1.0,5.0,89,0.00,,,0.00,weatherlink.com 1.10,2013-07-13 14:31:00,
2013-07-13 10:46:00,68.2,64.0,30.13,NE,44,1.0,5.0,87,0.00,,,0.00,weatherlink.com 1.10,2013-07-13 14:46:00,
2013-07-13 11:01:00,68.3,65.0,30.14,NE,45,0.0,4.0,88,0.00,,,0.00,weatherlink.com 1.10,2013-07-13 15:01:00,
2013-07-13 11:16:00,69.0,65.0,30.14,NE,42,0.0,4.0,88,0.00,,,0.00,weatherlink.com 1.10,2013-07-13 15:16:00,
2013-07-13 11:31:00,69.7,65.0,30.14,East,81,0.0,6.0,84,0.00,,,0.00,weatherlink.com 1.10,2013-07-13 15:31:00,
2013-07-13 11:46:00,70.0,65.0,30.14,SSE,150,0.0,3.0,83,0.00,,,0.00,weatherlink.com 1.10,2013-07-13 15:46:00,
2013-07-13 12:01:00,70.4,65.0,30.14,NE,38,0.0,5.0,83,0.00,,,0.00,weatherlink.com 1.10,2013-07-13 16:01:00,
2013-07-13 12:16:00,70.8,65.0,30.14,ENE,67,1.0,6.0,82,0.00,,,0.00,weatherlink.com 1.10,2013-07-13 16:16:00,
2013-07-13 12:31:00,71.7,66.0,30.14,NNE,27,5.0,5.0,81,0.00,,,0.00,weatherlink.com 1.10,2013-07-13 16:31:00,
2013-07-13 12:46:00,71.7,66.0,30.13,ENE,59,5.0,8.0,81,0.00,,,0.00,weatherlink.com 1.10,2013-07-13 16:46:00,
2013-07-13 13:01:00,71.9,66.0,30.14,NE,36,3.0,5.0,81,0.00,,,0.00,weatherlink.com 1.10,2013-07-13 17:01:00,
2013-07-13 13:16:00,72.8,66.0,30.14,NNE,23,3.0,6.0,78,0.00,,,0.00,weatherlink.com 1.10,2013-07-13 17:16:00,
2013-07-13 13:31:00,72.3,66.0,30.14,WSW,258,0.0,6.0,80,0.00,,,0.00,weatherlink.com 1.10,2013-07-13 17:31:00,
2013-07-13 13:46:00,73.0,67.0,30.14,NNE,22,1.0,2.0,80,0.00,,,0.00,weatherlink.com 1.10,2013-07-13 17:46:00,
2013-07-13 14:01:00,73.2,67.0,30.14,NNW,336,0.0,4.0,81,0.00,,,0.00,weatherlink.com 1.10,2013-07-13 18:01:00,
2013-07-13 14:16:00,73.8,66.0,30.13,NE,54,2.0,8.0,77,0.00,,,0.00,weatherlink.com 1.10,2013-07-13 18:16:00,
2013-07-13 14:31:00,74.5,67.0,30.13,East,101,0.0,9.0,78,0.00,,,0.00,weatherlink.com 1.10,2013-07-13 18:31:00,
2013-07-13 14:46:00,74.8,67.0,30.13,NE,49,3.0,5.0,77,0.00,,,0.00,weatherlink.com 1.10,2013-07-13 18:46:00,
2013-07-13 15:01:00,74.3,67.0,30.13,North,355,0.0,5.0,78,0.00,,,0.00,weatherlink.com 1.10,2013-07-13 19:01:00,
2013-07-13 15:16:00,74.2,67.0,30.13,NNE,22,0.0,7.0,77,0.00,,,0.00,weatherlink.com 1.10,2013-07-13 19:16:00,
2013-07-13 15:31:00,74.5,67.0,30.14,NE,39,7.0,7.0,77,0.00,,,0.00,weatherlink.com 1.10,2013-07-13 19:31:00,
2013-07-13 15:46:00,74.0,68.0,30.14,NNE,16,1.0,3.0,80,0.00,,,0.00,weatherlink.com 1.10,2013-07-13 19:46:00,
2013-07-13 16:01:00,74.0,68.0,30.14,NE,40,0.0,3.0,82,0.00,,,0.00,weatherlink.com 1.10,2013-07-13 20:01:00,
2013-07-13 16:16:00,73.9,68.0,30.14,NNE,30,0.0,5.0,81,0.00,,,0.00,weatherlink.com 1.10,2013-07-13 20:16:00,
2013-07-13 16:31:00,73.4,68.0,30.14,NE,34,1.0,5.0,82,0.00,,,0.00,weatherlink.com 1.10,2013-07-13 20:31:00,
2013-07-13 16:46:00,73.3,68.0,30.14,North,5,1.0,4.0,83,0.00,,,0.00,weatherlink.com 1.10,2013-07-13 20:46:00,
2013-07-13 17:01:00,73.2,68.0,30.14,NNE,17,2.0,6.0,83,0.00,,,0.00,weatherlink.com 1.10,2013-07-13 21:01:00,
2013-07-13 17:16:00,73.9,68.0,30.13,North,5,1.0,7.0,82,0.00,,,0.00,weatherlink.com 1.10,2013-07-13 21:16:00,
2013-07-13 17:31:00,73.7,68.0,30.13,NNE,22,0.0,7.0,82,0.00,,,0.00,weatherlink.com 1.10,2013-07-13 21:31:00,
2013-07-13 17:46:00,73.8,68.0,30.13,SE,129,0.0,5.0,83,0.00,,,0.00,weatherlink.com 1.10,2013-07-13 21:46:00,
2013-07-13 18:01:00,73.9,68.0,30.14,West,263,1.0,3.0,82,0.00,,,0.00,weatherlink.com 1.10,2013-07-13 22:01:00,
2013-07-13 18:16:00,73.9,69.0,30.14,West,270,0.0,1.0,84,0.00,,,0.00,weatherlink.com 1.10,2013-07-13 22:16:00,
2013-07-13 18:31:00,74.0,69.0,30.14,West,270,0.0,0.0,85,0.00,,,0.00,weatherlink.com 1.10,2013-07-13 22:31:00,
2013-07-13 18:46:00,73.3,69.0,30.14,NNE,16,0.0,5.0,85,0.00,,,0.00,weatherlink.com 1.10,2013-07-13 22:46:00,
2013-07-13 19:01:00,72.9,69.0,30.13,NNE,32,2.0,4.0,86,0.00,,,0.00,weatherlink.com 1.10,2013-07-13 23:01:00,
2013-07-13 19:16:00,72.9,68.0,30.13,NW,309,0.0,3.0,85,0.00,,,0.00,weatherlink.com 1.10,2013-07-13 23:16:00,
2013-07-13 19:31:00,72.7,69.0,30.14,NNW,340,0.0,3.0,87,0.00,,,0.00,weatherlink.com 1.10,2013-07-13 23:31:00,
2013-07-13 19:46:00,72.2,68.0,30.15,North,355,1.0,3.0,87,0.00,,,0.00,weatherlink.com 1.10,2013-07-13 23:46:00,
2013-07-13 20:01:00,71.9,68.0,30.15,East,86,0.0,2.0,88,0.00,,,0.00,weatherlink.com 1.10,2013-07-14 00:01:00,
2013-07-13 20:16:00,71.6,68.0,30.15,NNW,331,0.0,2.0,89,0.00,,,0.00,weatherlink.com 1.10,2013-07-14 00:16:00,
2013-07-13 20:31:00,71.3,68.0,30.15,SE,143,2.0,2.0,90,0.00,,,0.00,weatherlink.com 1.10,2013-07-14 00:31:00,
2013-07-13 20:46:00,71.1,68.0,30.16,NNE,17,0.0,3.0,90,0.00,,,0.00,weatherlink.com 1.10,2013-07-14 00:46:00,
2013-07-13 21:01:00,70.9,68.0,30.16,NE,55,0.0,2.0,90,0.00,,,0.00,weatherlink.com 1.10,2013-07-14 01:01:00,
2013-07-13 21:16:00,70.7,68.0,30.16,ESE,112,0.0,3.0,91,0.00,,,0.00,weatherlink.com 1.10,2013-07-14 01:16:00,
2013-07-13 21:31:00,70.4,68.0,30.17,East,80,0.0,2.0,91,0.00,,,0.00,weatherlink.com 1.10,2013-07-14 01:31:00,
2013-07-13 21:47:00,70.4,68.0,30.18,NNE,30,0.0,0.0,92,0.00,,,0.00,weatherlink.com 1.10,2013-07-14 01:47:00,
2013-07-13 22:02:00,70.4,68.0,30.18,NNE,30,0.0,0.0,93,0.01,,,0.01,weatherlink.com 1.10,2013-07-14 02:02:00,
2013-07-13 22:17:00,70.0,68.0,30.18,SE,124,0.0,1.0,94,0.01,,,0.01,weatherlink.com 1.10,2013-07-14 02:17:00,
2013-07-13 22:32:00,69.7,68.0,30.19,South,186,0.0,3.0,95,0.01,,,0.01,weatherlink.com 1.10,2013-07-14 02:32:00,
2013-07-13 22:47:00,69.5,68.0,30.19,ENE,63,1.0,2.0,95,0.14,,,0.14,weatherlink.com 1.10,2013-07-14 02:47:00,
2013-07-13 23:02:00,69.4,68.0,30.20,NE,35,1.0,3.0,96,0.16,,,0.17,weatherlink.com 1.10,2013-07-14 03:02:00,
2013-07-13 23:17:00,69.1,68.0,30.19,ENE,78,0.0,4.0,97,0.16,,,0.17,weatherlink.com 1.10,2013-07-14 03:17:00,
2013-07-13 23:32:00,68.9,68.0,30.19,ENE,76,0.0,5.0,97,0.16,,,0.17,weatherlink.com 1.10,2013-07-14 03:32:00,
2013-07-13 23:47:00,68.8,68.0,30.20,ENE,77,0.0,2.0,97,0.03,,,0.17,weatherlink.com 1.10,2013-07-14 03:47:00,